Вернуться в каталог

STARLINK-2612

АктивенСвязьVLEO
NORAD 48379·PAYLOAD·🇺🇸 United States

Запущен May 4, 2021 с Cape Canaveral Space Force Station

Loading…

Ближайшие Пролёты (ближайшие 24 часа)

TLE

СвежийSource: CelesTrak SupGP

Эпоха: Sep 15, 2026, 01:37 UTC

1 48379C 21038AC  26258.06784722 -.00013629  00000+0 -43827-3 0  2581
2 48379  53.1608 184.4247 0001517  82.7814 342.2108 15.31707777    16

Отслеживайте STARLINK-2612 в реальном времени с AllMySat

Download on the App Store